Regional Weather Roundup
Issued by NWS Newport/Morehead, NC

Current Version | Previous Version | Text Only | Print | Product List | Glossary Off
Versions: 1 2 3 4 5 6 7 8 9 10 11 12 13 14 15 16 17 18 19 20 21 22 23 24 25 26 27 28 29 30 31 32 33 34 35 36 37 38 39 40 41 42 43 44 45 46 47 48 49 50

000
ASUS42 KMHX 042324
RWRMHX
WEATHER ROUNDUP FOR EASTERN NORTH CAROLINA
NATIONAL WEATHER SERVICE NEWPORT/MOREHEAD CITY NC
600 PM EST SUN DEC 04 2016

NOTE: "FAIR" INDICATES FEW OR NO CLOUDS BELOW 12,000 FEET
WITH NO SIGNIFICANT WEATHER AND/OR OBSTRUCTIONS TO VISIBILITY

NCZ015>017-031-032-045>047-102-103-050000-
NORTH COAST

CITY           SKY/WX    TMP DP  RH WIND       PRES   REMARKS
EDENTON        CLOUDY    47  41  79 CALM      30.21S
ELIZABETH CITY CLOUDY    47  36  65 E3        30.21S
KITTY HAWK     CLOUDY    47  40  76 CALM      30.19S
MANTEO         CLOUDY    46  37  70 E3        30.21R

$$

NCZ045>047-081-094-103-104-050000-
CENTRAL COAST

CITY           SKY/WX    TMP DP  RH WIND       PRES   REMARKS
FRISCO         MOCLDY    49  40  71 NE3       30.20F

$$

NCZ095-097-098-100-101-050000-
SOUTHERN COAST

CITY           SKY/WX    TMP DP  RH WIND       PRES   REMARKS
BEAUFORT       LGT RAIN  48  42  80 E7        30.19F
CEDAR ISLAND   NOT AVBL
JACKSONVILLE   LGT RAIN  47  44  90 NE7       30.19F
PINEY ISLAND   MOCLDY   N/A N/A N/A E7        30.19F
WILMINGTON     CLOUDY    45  43  93 E8        30.16F


$$

NCZ011>013-027>030-043-044-078>080-089-090>093-098-050000-
COASTAL PLAIN

CITY           SKY/WX    TMP DP  RH WIND       PRES   REMARKS
AHOSKIE        CLOUDY    44  38  80 CALM      30.21F
CLINTON        LGT RAIN  44  44 100 CALM      30.19S
ELIZABETHTOWN  RAIN      44  44  99 CALM      30.16F
GOLDSBORO      LGT RAIN  45  45  99 CALM      30.18F FOG
GREENVILLE     NOT AVBL
HAVELOCK       CLOUDY    48  42  80 NE6       30.19F
KENANSVILLE    RAIN      45  43  93 NE3       30.18F FOG
KINSTON        CLOUDY    46  41  81 CALM      30.20F
NEW BERN       LGT RAIN  48  41  76 NE6       30.20F
RICHLANDS      LGT RAIN  46  44  93 NE3       30.20F
ROCKY MOUNT    LGT RAIN  45  41  86 CALM      30.20F
WASHINGTON     CLOUDY    47  41  79 CALM      30.21S
WHITEVILLE     CLOUDY    45  41  85 NE8       30.15F

$$

AMZ130-135-150-152-154-156-158-170-250-252-270-ANZ085-086-088-633-658-670-050000-
MARINE OBSERVATIONS

STATION/POSITION TIME  TEMP    WIND        PRES    WAVE   SWELL
                       AIR SEA DIR/SP/G            HT/PER HT/PER
                 (UTC) (F)     (DEG/KT/KT) (MB)    (FT/S) (FT/S)
CHESAPEAKE LIGHT NOT AVBL
64 E VA BEACH    2250   49 60   20/  6/ 10 1022.8    4/ 6   3/ 6
DUCK             2300   48 55   70/  6/  6 1022.0
2 E DUCK         NOT AVBL
OREGON INLET     2300   49 54   40/  5/  6 1022.6
13E OREGON INLT  2300      55                N/A     4/ 5   3/ 5
HATTERAS CG      2300   50 59   50/  5/  7 1022.1
DIAMOND BUOY     2250   55 75   40/  8/ 12 1022.7    4/ 9   3/ 9
CAPE LOOKOUT     2300   52      40/ 13/ 16 1021.8
BEAUFORT LAB     2300   48 54   50/  3/  7 1021.1
30 SE NEW RVR IN 2308   55 74   60/ 14/ 19 1021.4
30 SE NEW RVR IN NOT AVBL
27 SE WRIGHTSVLE 2308   58 68   70/ 14/ 17 1021.0
5 SE WRIGHTSVLE  2208   50 63   50/ 14/ 23 1021.3
225 S CAPE HAT   2250   66 73  110/  8/ 10 1021.4    4/10   3/10
41 SE CHARLESTON 2250   70 75  140/ 14/ 16 1018.4    4/ 5   2/ 8

$$



USA.gov is the U.S. government's official web portal to all federal, state and local government web resources and services.